RH
51 51 51 51 51 51 51 50 50 50 49 49 49 49 49 49 50 51 52 52 53 54 55 57 59 61 63 64 64 64 63 62 61 60 58 57 56 56 55 55 55 56 57 58 58 59 59 59 59 60 60 60 60 60 60 59 59 58 57 56 55 54 54 54 54 55 56 56 57
53 52 52 52 52 52 51 51 51 51 51 51 51 51 51 52 52 53 54 55 57 59 60 63 64 65 66 65 65 64 64 63 62 61 60 58 57 56 55 55 55 55 56 57 57 58 59 59 60 60 60 60 60 60 60 60 59 58 57 56 55 54 54 54 55 55 56 56 57
53 53 53 53 53 52 52 51 51 51 51 52 53 54 55 55 56 57 58 59 61 64 65 66 67 67 67 66 65 64 63 63 62 61 60 60 59 58 56 55 55 55 55 56 57 58 58 59 60 61 61 61 61 61 60 60 59 58 57 56 55 55 55 55 55 55 56 56 56
53 53 53 53 53 52 51 51 51 51 52 54 55 57 58 59 60 61 63 64 66 67 67 68 68 68 67 67 66 64 63 61 61 60 61 61 60 60 58 56 55 55 55 55 56 58 59 60 61 61 61 62 61 61 60 60 59 58 57 56 56 55 55 55 55 55 56 56 56
53 53 53 53 52 52 52 52 52 53 55 56 58 60 62 63 65 65 66 66 66 67 67 68 68 68 67 66 65 64 62 61 60 60 61 61 62 61 60 58 56 55 55 55 57 58 59 60 61 62 62 63 62 62 61 60 59 58 57 56 56 55 55 55 55 55 56 56 56
53 54 54 53 54 54 54 55 55 56 58 59 61 62 64 65 65 65 65 65 65 66 66 67 67 67 66 66 65 64 62 61 61 61 62 62 63 62 61 59 57 55 55 56 57 58 59 60 62 62 63 64 63 62 61 60 59 58 57 56 56 55 55 56 55 56 56 56 56
55 56 56 57 57 57 58 58 59 59 60 61 62 62 62 63 63 64 64 64 65 66 66 66 66 66 65 65 65 64 64 63 63 63 63 63 63 63 62 60 57 56 56 56 57 58 60 61 62 64 64 64 63 62 61 60 59 58 57 56 55 55 55 55 55 56 56 56 57
58 59 60 60 60 61 61 61 61 60 60 60 60 59 60 60 62 63 64 65 65 65 65 65 65 65 65 66 66 66 65 65 64 64 64 63 63 63 62 60 58 57 56 57 58 59 60 62 64 65 65 64 63 61 60 59 58 57 57 56 55 55 55 56 56 56 57 57 57
61 62 62 63 63 62 62 61 60 59 59 58 58 58 59 61 62 64 64 65 64 64 64 65 65 66 66 67 67 67 67 66 66 65 64 64 63 63 62 60 58 57 57 57 58 59 61 63 65 65 65 63 62 61 60 59 58 57 56 55 55 55 55 56 57 57 57 57 58
62 62 63 63 62 62 61 61 60 60 59 59 59 60 61 62 63 64 64 64 64 64 65 65 66 66 67 67 68 68 68 67 67 66 65 64 63 62 61 60 58 57 57 57 59 61 63 65 66 65 63 62 61 60 59 57 57 55 55 54 55 55 56 57 57 58 58 58 58
61 61 61 61 61 61 61 62 62 62 62 62 62 63 63 64 64 63 63 63 64 65 65 65 66 66 67 68 68 68 68 68 67 66 65 64 63 62 61 59 58 58 57 58 60 63 65 66 65 63 62 60 59 59 58 56 55 54 54 54 55 56 57 58 58 59 59 59 59
59 59 59 59 60 61 62 63 64 64 65 65 65 65 65 64 64 63 63 64 64 65 65 65 66 67 67 68 69 69 69 68 68 67 65 64 63 61 60 59 58 58 59 61 63 65 66 65 63 61 59 59 58 57 56 55 54 53 53 54 55 57 58 59 60 60 60 60 61
58 59 59 60 61 62 63 64 64 65 65 66 66 65 65 64 64 64 64 64 64 65 65 66 66 67 68 68 69 69 69 68 68 67 66 64 63 61 60 59 59 60 62 64 66 66 65 62 60 59 58 57 56 55 54 53 53 53 54 55 56 58 59 61 62 62 62 61 62
59 60 60 61 62 63 63 64 65 65 65 66 65 65 64 64 64 64 64 65 65 66 66 67 67 68 68 68 69 69 69 68 68 66 65 64 62 61 61 61 63 65 66 67 66 64 62 59 58 57 56 56 54 53 52 52 52 53 54 56 58 59 61 62 63 63 63 63 64
60 61 61 62 62 63 64 64 64 65 65 64 64 64 63 63 64 64 65 66 66 66 67 67 67 68 68 68 68 69 68 68 67 66 65 64 63 63 64 66 68 68 68 66 64 61 59 57 56 56 54 53 52 52 52 52 53 55 56 58 60 61 63 64 64 64 64 65 65
61 61 61 62 62 63 63 63 63 63 63 63 63 63 63 63 64 65 66 66 66 67 67 67 67 67 67 67 68 68 68 68 67 66 65 65 66 67 69 70 69 68 65 63 60 58 56 55 54 53 53 52 51 52 52 53 55 56 58 60 62 63 64 65 65 65 66 66 65
60 61 61 61 61 62 62 62 62 62 62 62 62 62 63 64 66 66 66 66 66 66 65 65 65 66 67 67 67 68 68 67 67 68 68 69 70 70 70 69 66 63 61 58 56 55 54 53 52 51 51 51 52 53 54 55 57 59 60 62 63 64 65 65 66 66 67 66 64
60 60 60 60 61 61 61 61 61 61 61 61 61 62 63 65 66 66 66 65 64 64 64 64 65 65 66 67 67 68 68 68 69 69 70 70 69 68 66 63 61 58 56 54 53 52 51 51 51 51 51 52 53 54 56 58 59 61 62 64 64 65 65 66 66 67 67 65 63
58 59 59 60 60 60 60 60 60 60 60 60 61 62 63 64 65 64 64 63 62 63 63 64 65 65 66 67 67 68 68 68 68 68 67 66 64 61 59 57 55 53 52 51 51 50 51 51 51 52 52 53 55 56 58 60 62 63 64 65 65 65 66 67 67 67 65 63 62
56 57 58 58 59 59 59 59 59 59 60 60 61 62 62 63 62 62 61 61 61 62 63 64 65 65 66 66 66 66 65 65 64 63 61 59 57 55 53 52 51 50 50 50 51 51 51 52 53 53 54 55 57 59 60 62 63 64 65 65 66 66 67 67 66 65 63 62 61
54 55 56 57 57 58 58 58 58 59 60 61 61 61 61 61 60 60 60 60 61 62 63 64 64 65 65 65 64 63 62 61 60 58 56 54 52 51 50 50 50 50 51 52 52 53 53 54 55 55 57 58 59 61 62 64 64 65 65 66 66 67 67 66 64 63 61 60 60
53 54 55 56 57 57 58 58 59 60 61 61 61 61 60 60 59 60 60 61 62 63 64 64 64 64 64 64 63 61 60 58 57 55 53 52 51 51 51 51 52 53 53 54 55 55 56 57 57 58 59 61 62 63 64 65 65 66 66 66 67 66 65 63 61 60 59 59 57
53 54 56 56 57 58 59 59 60 61 61 61 60 60 59 59 59 60 60 61 62 62 63 64 64 64 63 62 61 60 59 57 56 54 53 53 53 53 54 55 55 56 56 57 58 58 59 59 60 61 62 63 64 65 65 66 66 67 67 66 65 63 61 59 59 58 58 56 53
55 56 57 57 58 59 60 60 60 61 60 60 59 59 58 58 59 59 59 60 61 61 62 63 63 63 62 62 61 60 59 58 57 56 56 56 56 57 57 58 59 59 59 60 60 61 61 62 63 64 65 66 66 66 66 67 67 67 66 63 61 60 58 58 58 57 55 53 49
56 57 57 58 59 59 59 60 59 59 59 58 58 58 57 57 57 58 58 59 60 61 61 62 62 62 62 61 61 60 60 59 59 59 59 60 60 60 61 61 61 62 62 62 62 63 63 64 65 66 67 67 68 67 68 67 66 64 62 60 58 57 57 57 56 54 51 48 45
56 56 57 57 58 58 58 58 58 57 57 57 56 56 56 56 56 57 57 58 59 60 61 61 61 61 61 61 61 61 61 61 61 62 62 63 63 63 63 63 63 63 63 63 64 65 66 67 68 68 68 68 68 68 67 64 62 60 59 57 57 57 56 55 53 50 47 44 43
55 55 55 56 56 56 56 56 56 56 56 55 55 55 55 55 56 56 57 58 59 60 60 61 61 61 62 62 62 62 63 63 63 63 64 64 64 64 64 64 64 64 64 65 66 67 68 69 69 70 69 68 67 64 62 60 58 57 57 57 56 55 54 52 49 46 44 43 42
54 54 54 55 55 55 55 55 55 55 55 55 54 55 55 55 56 57 57 58 59 59 60 60 61 61 62 62 63 63 63 64 64 64 64 64 64 64 64 64 65 65 66 67 68 69 70 70 70 69 67 65 62 60 58 57 56 56 56 56 55 53 50 47 45 44 43 42 41
53 54 55 55 55 55 55 55 55 55 55 55 55 55 56 56 57 57 58 58 59 59 60 60 61 61 62 62 62 63 64 64 64 64 64 64 65 65 65 66 66 67 68 69 70 71 70 69 67 65 63 60 58 57 56 56 56 55 55 53 51 48 46 44 43 42 42 41 40
54 54 55 55 56 56 56 56 56 56 56 56 56 56 57 57 58 58 58 59 59 60 60 60 61 61 62 62 63 64 64 64 65 65 65 65 66 66 67 68 69 70 71 71 70 69 67 65 63 61 59 58 57 56 56 55 54 53 51 49 47 45 43 42 41 40 40 39 38
54 54 55 56 56 56 57 57 57 57 57 57 58 58 58 59 59 59 60 60 60 60 61 61 61 62 63 63 64 65 65 65 66 66 66 67 68 68 69 70 71 71 70 69 67 65 62 60 59 58 57 57 56 55 54 53 51 49 47 45 43 42 41 40 39 39 38 37 36
53 54 55 56 56 57 57 58 58 58 59 59 59 60 60 60 60 60 60 60 61 61 61 62 63 63 64 65 65 65 66 66 67 67 68 69 69 70 70 70 70 69 67 64 62 60 59 58 58 57 56 56 54 53 51 49 47 45 43 42 40 40 39 38 37 37 36 35 34
54 54 55 56 57 58 58 59 59 60 60 61 61 61 61 61 61 61 61 61 62 62 63 63 64 65 65 65 66 66 67 68 68 69 70 70 70 69 68 67 66 64 62 60 59 58 58 57 57 56 55 53 51 49 47 45 43 41 40 38 37 36 36 36 35 34 33 32 31
53 54 56 57 57 58 59 60 60 61 61 62 62 62 62 62 62 62 62 62 63 63 64 64 65 65 65 66 67 67 68 69 69 70 69 69 67 65 64 62 61 60 59 58 58 57 57 56 54 53 51 49 46 44 42 40 38 37 35 34 34 33 33 33 32 31 30 29 27
53 54 55 56 57 58 59 60 60 61 61 62 62 62 62 62 62 62 62 62 62 63 63 64 64 65 66 67 67 68 68 69 68 67 66 64 62 60 59 59 59 58 58 57 56 55 54 52 50 48 45 43 41 39 37 35 34 33 32 31 31 30 29 29 28 27 26 25 24
52 53 54 55 56 57 58 59 59 60 60 60 61 61 61 61 61 61 61 61 62 63 63 64 65 65 66 67 67 67 66 65 64 62 61 59 58 58 57 57 58 57 56 55 53 51 49 46 44 42 39 37 35 34 32 32 31 30 29 29 28 27 26 25 24 23 22 22 21
50 51 52 53 54 55 56 57 57 58 58 58 59 59 60 60 60 61 61 61 62 63 64 64 65 65 65 65 64 63 62 60 60 59 58 58 57 56 56 56 56 55 53 50 48 45 43 40 38 36 34 33 32 30 29 29 28 28 27 26 25 24 22 21 21 20 20 20 21
50 51 51 52 53 54 54 55 55 56 56 57 58 58 59 60 61 61 62 62 63 63 63 63 63 62 62 61 60 60 59 59 58 58 57 57 56 55 54 52 51 49 47 44 41 39 37 35 33 32 31 30 29 29 28 27 26 26 25 24 22 21 20 19 20 20 20 21 22
50 50 51 52 52 53 53 54 55 56 56 57 58 59 60 61 61 62 62 62 62 62 62 61 60 60 59 59 59 59 59 58 57 57 55 54 52 51 48 46 44 41 39 37 35 33 32 31 30 29 29 29 28 27 27 26 25 24 23 22 21 21 20 20 21 22 22 23 24
49 50 50 51 52 53 54 54 55 56 57 58 59 60 60 61 61 61 61 61 60 60 60 60 60 59 59 59 58 58 57 56 54 53 51 49 46 44 41 39 36 34 32 31 30 30 29 28 28 28 28 27 27 26 26 25 25 24 24 23 23 23 23 24 24 25 25 26 26
49 50 50 51 52 53 55 56 56 57 58 59 59 59 59 60 60 60 60 60 60 60 59 59 59 58 58 56 55 53 52 50 48 46 44 41 39 37 35 33 31 29 28 28 28 28 27 27 27 27 27 27 26 26 26 26 26 26 26 26 26 27 27 27 28 28 28 28 28